EW7704 Weather Reports


Display with metric or nautical units.
time (UTC)temp
F
wind
direction
speed
MPH
gust
MPH
rain 1hr
in
rain 24hr
in
rain mn
in
humidity
%
barometer
mb
20200709081622 65 95 0.0 1.0 0.00 0.00 0.00 45 1002.5
20200709080156 65 95 0.0 2.0 0.00 0.00 0.00 44 1002.4
20200709074537 65 95 1.0 4.0 0.00 0.00 0.00 46 1002.5
20200709073205 66 91 0.0 3.0 0.00 0.00 0.00 46 1002.4
20200709071555 65 91 0.0 5.0 0.00 0.00 0.00 46 1002.2
20200709070104 65 86 0.0 1.0 0.00 0.00 0.00 48 1001.9
20200709064558 65 86 1.0 2.0 0.00 0.00 0.00 50 1002.0
20200709063056 66 86 1.0 2.0 0.00 0.00 0.00 49 1001.8
20200709061528 68 86 1.0 3.0 0.00 0.00 0.00 45 1001.6
20200709060035 70 86 0.0 1.0 0.00 0.00 0.00 43 1001.6
20200709054521 71 86 0.0 0.0 0.00 0.00 0.00 40 1001.8
20200709053035 72 86 0.0 1.0 0.00 0.00 0.00 39 1001.9
20200709051534 73 86 0.0 3.0 0.00 0.00 0.00 36 1001.7
20200709050015 73 100 0.0 2.0 0.00 0.00 0.00 35 1001.7
20200709044517 74 100 0.0 1.0 0.00 0.00 0.00 35 1001.4
20200709043039 76 100 0.0 1.0 0.00 0.00 0.00 35 1001.4
20200709041517 77 100 2.0 6.0 0.00 0.00 0.00 34 1001.6
20200709040021 78 94 4.0 10.0 0.00 0.00 0.00 33 1001.4
20200709034512 79 111 2.0 4.0 0.00 0.00 0.00 29 1000.7
20200709033020 80 236 3.0 7.0 0.00 0.00 0.00 27 1000.2
20200709031515 81 267 2.0 6.0 0.00 0.00 0.00 26 1000.0
20200709030039 82 254 2.0 8.0 0.00 0.00 0.00 24 1000.1
20200709024516 83 273 2.0 5.0 0.00 0.00 0.00 23 999.9
20200709023014 84 217 7.0 14.0 0.00 0.00 0.00 21 999.4
20200709021524 86 234 5.0 17.0 0.00 0.00 0.00 20 999.4
20200709020023 89 242 3.0 8.0 0.00 0.00 0.00 14 999.1
20200709014513 89 265 4.0 11.0 0.00 0.00 0.00 14 999.0
20200709013028 90 250 6.0 10.0 0.00 0.00 0.00 13 999.0
20200709011513 91 207 1.0 7.0 0.00 0.00 0.00 17 999.0
20200709010013 91 239 4.0 10.0 0.00 0.00 0.00 13 999.0
20200709004525 91 240 4.0 8.0 0.00 0.00 0.00 13 998.8
20200709003019 93 217 8.0 12.0 0.00 0.00 0.00 11 998.8
20200709001515 96 248 3.0 9.0 0.00 0.00 0.00 10 998.7
20200709000025 98 137 4.0 9.0 0.00 0.00 0.00 10 998.6
20200708234519 98 49 3.0 11.0 0.00 0.00 0.00 9 998.7
20200708233016 98 91 4.0 8.0 0.00 0.00 0.00 9 998.6
20200708231508 98 77 2.0 8.0 0.00 0.00 0.00 11 998.6
20200708230019 97 188 2.0 11.0 0.00 0.00 0.00 14 998.6
20200708224541 98 121 1.0 5.0 0.00 0.00 0.00 12 998.7
20200708223011 99 212 3.0 10.0 0.00 0.00 0.00 9 998.6
20200708221520 98 78 3.0 11.0 0.00 0.00 0.00 9 998.8
20200708220011 97 92 5.0 15.0 0.00 0.00 0.00 9 998.8
20200708214511 97 97 4.0 11.0 0.00 0.00 0.00 11 998.9
20200708213004 96 97 5.0 15.0 0.00 0.00 0.00 10 999.0
20200708211515 96 66 5.0 18.0 0.00 0.00 0.00 10 999.0
20200708210010 96 102 6.0 15.0 0.00 0.00 0.00 9 999.1
20200708204708 97 71 8.0 13.0 0.00 0.00 0.00 9 999.2
20200708203220 97 94 6.0 16.0 0.00 0.00 0.00 11 999.2
20200708201715 96 78 7.0 14.0 0.00 0.00 0.00 11 999.3
20200708194709 97 34 3.0 7.0 0.00 0.00 0.00 13 999.5
20200708193217 98 306 1.0 8.0 0.00 0.00 0.00 11 999.4
20200708191701 97 234 0.0 3.0 0.00 0.00 0.00 11 999.7
20200708184713 93 237 2.0 6.0 0.00 0.00 0.00 18 1000.2
20200708183048 93 246 2.0 8.0 0.00 0.00 0.00 17 1000.6
20200708181621 92 250 1.0 5.0 0.00 0.00 0.00 21 1000.8
20200708174551 90 263 3.0 6.0 0.00 0.00 0.00 21 1001.4
20200708173111 88 246 3.0 6.0 0.00 0.00 0.00 21 1001.5
20200708171600 88 269 4.0 10.0 0.00 0.00 0.00 21 1001.7
20200708164541 87 256 5.0 7.0 0.00 0.00 0.00 21 1001.7
20200708163109 86 258 3.0 7.0 0.00 0.00 0.00 23 1001.7
20200708161556 84 258 1.0 4.0 0.00 0.00 0.00 26 1001.8
20200708154519 81 267 2.0 5.0 0.00 0.00 0.00 29 1002.0
20200708153026 80 252 4.0 9.0 0.00 0.00 0.00 32 1002.1
20200708151504 78 271 2.0 5.0 0.00 0.00 0.00 33 1002.2
20200708144559 76 296 1.0 6.0 0.00 0.00 0.00 37 1002.4
20200708143113 73 25 2.0 4.0 0.00 0.00 0.00 38 1002.5
20200708141807 71 73 2.0 4.0 0.00 0.00 0.00 42 1002.8
20200708134656 67 42 0.0 4.0 0.00 0.00 0.00 46 1002.8
20200708133209 65 42 0.0 3.0 0.00 0.00 0.00 49 1002.9
20200708131728 63 81 1.0 4.0 0.00 0.00 0.00 53 1003.0
20200708124732 57 81 1.0 3.0 0.00 0.00 0.00 63 1002.8
20200708123250 55 81 0.0 1.0 0.00 0.00 0.00 71 1002.7
20200708121649 54 81 0.0 1.0 0.00 0.00 0.00 71 1002.6
20200708114638 54 81 0.0 1.0 0.00 0.00 0.00 71 1002.4
20200708113238 54 81 0.0 0.0 0.00 0.00 0.00 69 1002.1
20200708111627 55 81 0.0 1.0 0.00 0.00 0.00 71 1001.8
20200708104705 55 81 0.0 2.0 0.00 0.00 0.00 71 1001.4
20200708103104 56 81 0.0 2.0 0.00 0.00 0.00 70 1001.2
20200708101540 57 81 0.0 0.0 0.00 0.00 0.00 67 1001.1
20200708094605 59 81 1.0 2.0 0.00 0.00 0.00 67 1000.9
20200708093040 60 81 0.0 1.0 0.00 0.00 0.00 65 1000.6
20200708091527 61 81 2.0 4.0 0.00 0.00 0.00 63 1000.3
20200708084552 63 81 1.0 2.0 0.00 0.00 0.00 62 1000.2
20200708083126 64 81 1.0 3.0 0.00 0.00 0.00 61 1000.0